Location: Chapleau
(47.8423°N, 83.4026°W)
Time: 09:05:38
(UTC-04:00)

ISS - Visible Passes

Search period start: 29 September 2023 00:00
Search period end: 09 October 2023 00:00
Orbit: 413 x 421 km, 51.6° (Epoch: 29 September)

Date Brightness Start Highest point End Pass type
(mag) Time Alt. Az. Time Alt. Az. Time Alt. Az.
29 Sep -2.9 21:04:35 10° WNW 21:07:44 39° SW 21:08:16 36° S visible
30 Sep -3.4 20:16:11 10° WNW 20:19:28 60° SSW 20:21:58 16° SE visible
30 Sep -0.7 21:54:32 10° WSW 21:54:53 11° WSW 21:54:53 11° WSW visible
01 Oct -1.5 21:05:08 10° W 21:07:28 18° SW 21:08:37 15° SSW visible
02 Oct -1.9 20:16:18 10° W 20:19:11 27° SW 20:22:04 10° SSE visible
04 Oct -0.8 20:17:06 10° WSW 20:18:30 12° SW 20:19:52 10° SSW visible
